Miscellaneous Local Product
Issued by NWS North Platte, NE

Home | Current Version | Previous Version | Graphics & Text | Print | Product List | Glossary On
Versions: 1 2 3 4 5 6 7 8 9 10 11 12 13 14 15 16 17 18 19 20 21 22 23 24 25 26 27 28 29 30 31 32 33 34 35 36 37 38 39 40 41 42 43 44 45 46 47 48 49 50
000
AXUS43 KLBF 311010
MISLBF


WESTERN AND NORTH CENTRAL NEBRASKA HOURLY WEATHER ROUNDUP
NATIONAL WEATHER SERVICE NORTH PLATTE NE
400 AM CST SAT JAN 31 2015

***STATIONS NOT REPORTING VARIABLES SUCH AS SKY/WEATHER OR
PRESSURE ARE PROVIDED BY THE NEBRASKA DEPARTMENT OF
ROADS...RAWS...AND APRS NETWORKS...AND ARE NOT UNDER
NATIONAL WEATHER SERVICE QUALITY CONTROL***

...OBSERVATIONS IN AND NEAR THE EASTERN PANHANDLE OF NEBRASKA...

CITY           SKY/WX    TMP DP  RH WIND       PRES   REMARKS
PINE RIDGE     CLOUDY    25  22  88 CALM      30.01F
CHADRON        CLOUDY    27  24  89 CALM      30.02F
ALLIANCE       MOCLDY    29  26  89 N5        29.98F WCI  24
SIDNEY         CLOUDY    32  28  85 N8        29.97F WCI  25
WHITECLAY        N/A     25  21  86 CALM        N/A
CRESCENT LAKE    N/A     30  28  94 CALM        N/A
LISCO            N/A     32  28  86 CALM        N/A
LEWELLEN         N/A     34  31  89 CALM        N/A
$$

...OBSERVATIONS IN NORTH CENTRAL NEBRASKA...

CITY           SKY/WX    TMP DP  RH WIND       PRES   REMARKS
VALENTINE      CLOUDY    28  25  88 NE3       30.04F
THEDFORD       CLOUDY    32  32  99 CALM      30.03F
AINSWORTH      CLOUDY    29  28  93 CALM      30.05S
O`NEILL        CLOUDY    33  32  93 CALM      30.08S
ORD            CLOUDY    35  31  85 S3        30.08F
BROKEN BOW     CLOUDY    36  32  85 S8        30.06F WCI  30
BROWNLEE         N/A     33  30  90 CALM        N/A
VALENTINE NWR    N/A     32  29  88 SW5         N/A  WCI  27
SPRINGVIEW       N/A     26  23  88 CALM        N/A
BREWSTER         N/A     37  34  87 S6          N/A  WCI  33
ROSE             N/A     36  36  98 SE3         N/A
NEWPORT          N/A     32  30  93 CALM        N/A
SARGENT          N/A     35  32  90 CALM        N/A
COMSTOCK         N/A     38  36  92 S7          N/A  WCI  32
CHAMBERS         N/A     34  30  86 S3          N/A
EWING            N/A     35  32  89 SW5         N/A  WCI  31
$$

...OBSERVATIONS IN SOUTHWEST NEBRASKA AND FAR NORTHEAST COLORADO...

CITY           SKY/WX    TMP DP  RH WIND       PRES   REMARKS
WRAY           CLOUDY    36  34  93 E3        29.97F
IMPERIAL       CLOUDY    34  32  92 SE7       29.99F WCI  28
OGALLALA       CLOUDY    35  33  92 E5        29.99F WCI  31
NORTH PLATTE   CLOUDY    34  32  92 SE7       30.03F WCI  28
MCCOOK         CLOUDY    34  32  92 SE5       30.04F WCI  30
LEXINGTON      FLURRIES  34  32  93 S9        30.06F WCI  27
BRADY            N/A     33  30  90 CALM        N/A
GOTHENBURG       N/A     34  30  86 S5          N/A  WCI  30
CALLAWAY         N/A     33  31  94 S8          N/A  WCI  26
$$

...NORTH PLATTE AREA...

CITY           SKY/WX    TMP DP  RH WIND       PRES   REMARKS
AIRPORT        CLOUDY    34  32  92 SE7       30.03F WCI  28
DOWNTOWN         N/A     34  31  90 S3          N/A
$$

...SOME WEATHER OBSERVATIONS FROM AROUND THE REGION...

CITY           SKY/WX    TMP DP  RH WIND       PRES   REMARKS
DENVER         CLOUDY    33  25  72 NE5       29.95F WCI  29
LARAMIE        CLOUDY    28  23  81 CALM      29.93F
CHEYENNE       CLOUDY    32  23  69 N6        29.95F WCI  26
SCOTTSBLUFF    CLOUDY    33  26  75 NW3       29.99F
RAPID CITY     CLOUDY    29  22  75 N5        30.04F WCI  24
PIERRE         MOCLDY    25  23  92 NE6       30.11R WCI  18
WINNER         FAIR      28  22  78 CALM      30.08F
SIOUX FALLS    PTCLDY    22  19  89 CALM      30.09F
OMAHA          CLOUDY    33  27  78 SE9       30.19F WCI  25
GRAND ISLAND   CLOUDY    35  32  88 S12       30.13F WCI  27
KANSAS CITY    LGT RAIN  34  30  85 SW3       30.28S
WICHITA        CLOUDY    39  25  57 SE3       30.22F
HAYS           CLOUDY    32  25  74 SE12      30.13F WCI  23
LIBERAL        CLOUDY    36  30  80 S17       30.11F WCI  25
GOODLAND       CLOUDY    34  33  96 S12       29.97F WCI  25
$$



USA.gov is the U.S. government's official web portal to all federal, state and local government web resources and services.